{"data":{"norad_id":55765,"epoch":"2026-09-20T22:12:49.232448Z","epoch_age_seconds":66250,"freshness":"FRESH","line1":"1 55765U 23028AA  26263.92556982 -.00000089  00000+0  35450-6 0  9998","line2":"2 55765  69.9980  92.3570 0002536 271.4038  88.6831 14.98331205195777","mean_motion":14.98331205,"eccentricity":0.0002536,"inclination_deg":69.998,"raan_deg":92.357,"arg_perigee_deg":271.4038,"mean_anomaly_deg":88.6831,"bstar":3.545e-7,"rev_number":19577,"period_min":96.106921833748,"perigee_km":570.28959661167,"apogee_km":573.81473255595,"semimajor_km":6950.1891645838,"source":"CELESTRAK","updated_at":"2026-09-21T09:00:33.316084Z"}}